Content
SEND FEEDBACK

Daily
Averages
Monthly
Summary
United States of America

BEDFORD PARK, ILLINOIS


Home > North America > United States > Illinois
Elevation: 623 feet     Latitude: 41 46N     Longitude: 087 45W

WEATHER
 
SELECT A DAY
Number of Records: 194,110;   Date Range: 1/1/95 - 12/26/14
 
SHARE

PRINT THIS DATA

[ ← Previous Day ]
WEATHER ALMANAC - SEPTEMBER 18, 2013
[ Next Day → ]
[ °C ]   °F
Weather ElementAverageHighLow
Temperature70.6 °F82 °F (2:51 pm)62.1 °F (1:51 am)
Dewpoint59.5 °F66.9 °F (5:51 pm)48 °F (1:51 am)
Humidity68.9 %88 % (7:15 pm)50 % (1:51 pm)
Barometer30.00 in30.10 in (1:51 am)29.93 in (5:51 pm)
Wind Speed10 mph20.7 mph (6:51 pm)
Wind Gust32.2 mph (8:51 pm)
Weather ElementAverage
Visibility8.5 mi
Wind DirectionS (177.6 °)

Weather ElementTotal
Precipitation1.48 in
Cooling Degree Days7.1 (Base 65)
Growing Degree Days22.1 (Base 50)
Averaged from 33 records on September 18, 2013
WEATHER CONDITIONS BREAKOUT
WIND DIRECTION BREAKOUT
WEATHER BY HOUR - SEPTEMBER 18, 2013
[ °C ]   °F
Local TimeTemperatureDewpointHumidityBarometerVisibilityWind DirectionWind SpeedGust SpeedPrecipitationEventsConditions
1:51 AM62.1 °F48.0 °F60 %30.10 in10.0 miSE (130°)3.5 mphMostly Cloudy
2:51 AM62.1 °F48.0 °F60 %30.09 in10.0 miSouth (170°)4.6 mphMostly Cloudy
3:51 AM63.0 °F48.9 °F60 %30.08 in10.0 miSouth (170°)5.8 mphOvercast
4:51 AM62.1 °F50.0 °F65 %30.08 in10.0 miSSE (160°)3.5 mphOvercast
5:51 AM63.0 °F51.1 °F65 %30.08 in10.0 miSSE (160°)3.5 mphOvercast
6:51 AM63.0 °F51.1 °F65 %30.09 in10.0 miSouth (170°)6.9 mphOvercast
7:51 AM64.0 °F52.0 °F65 %30.09 in10.0 miSouth (170°)5.8 mphOvercast
8:51 AM66.9 °F53.1 °F61 %30.07 in10.0 miSouth (170°)8.1 mphOvercast
9:51 AM69.1 °F54.0 °F58 %30.06 in10.0 miSouth (170°)8.1 mphMostly Cloudy
10:51 AM73.9 °F55.9 °F53 %30.05 in10.0 miSouth (190°)9.2 mph18.4 mphScattered Clouds
11:51 AM77.0 °F57.9 °F52 %30.03 in10.0 miSouth (180°)10.4 mph17.3 mphScattered Clouds
12:51 PM79.0 °F60.1 °F52 %30.01 in10.0 miSouth (180°)8.1 mphMostly Cloudy
1:51 PM81.0 °F61.0 °F50 %29.98 in10.0 miSouth (170°)12.7 mph18.4 mphMostly Cloudy
2:51 PM82.0 °F62.1 °F51 %29.96 in10.0 miSouth (180°)10.4 mphOvercast
3:51 PM81.0 °F62.1 °F52 %29.95 in10.0 miSouth (180°)9.2 mphOvercast
4:27 PM80.6 °F62.6 °F54 %29.97 in10.0 miSouth (180°)10.4 mph0.00 inRain-ThunderstormLight Thunderstorms and Rain
4:51 PM75.0 °F64.0 °F69 %29.95 in9.0 miSSW (210°)17.3 mph26.5 mph0.00 inRain-ThunderstormLight Thunderstorms and Rain
5:39 PM71.6 °F66.2 °F83 %29.95 in8.0 miSSE (160°)8.1 mph0.08 inRainLight Rain
5:44 PM71.6 °F66.2 °F83 %29.95 in7.0 miSSE (160°)6.9 mph0.09 inRain-ThunderstormLight Thunderstorms and Rain
5:51 PM71.1 °F66.9 °F87 %29.93 in7.0 miSouth (170°)9.2 mph0.10 inRain-ThunderstormLight Thunderstorms and Rain
6:02 PM71.6 °F66.2 °F83 %29.94 in10.0 miSSE (160°)8.1 mph0.00 inRainLight Rain
6:38 PM71.6 °F64.4 °F78 %29.94 in10.0 miSSW (200°)4.6 mph0.01 inRain-ThunderstormLight Thunderstorms and Rain
6:51 PM71.1 °F66.0 °F84 %29.97 in5.0 miNNW (330°)20.7 mph29.9 mph0.03 inRain-ThunderstormLight Thunderstorms and Rain
6:56 PM69.8 °F64.4 °F83 %29.99 in2.5 miNNW (330°)17.3 mph29.9 mph0.07 inRain-ThunderstormThunderstorms and Rain
7:03 PM69.8 °F64.4 °F83 %29.99 in2.0 miNorth (360°)17.3 mph0.13 inRain-ThunderstormHeavy Thunderstorms and Rain
7:15 PM69.8 °F66.2 °F88 %29.97 in2.0 miNNE (30°)18.4 mph0.21 inRain-ThunderstormHeavy Thunderstorms and Rain
7:37 PM68.0 °F62.6 °F83 %29.95 in5.0 miESE (120°)17.3 mph29.9 mph0.38 inRain-ThunderstormThunderstorms and Rain
7:51 PM69.1 °F64.0 °F84 %29.94 in5.0 miESE (110°)12.7 mph0.38 inThunderstorm
8:51 PM70.0 °F60.1 °F71 %29.93 in8.0 miSE (130°)17.3 mph32.2 mphThunderstormThunderstorm
9:08 PM71.6 °F60.8 °F69 %29.96 in10.0 miSSE (150°)12.7 mphOvercast
9:51 PM70.0 °F62.1 °F76 %29.95 in10.0 miSouth (180°)6.9 mphOvercast
10:51 PM69.1 °F61.0 °F75 %29.96 in10.0 miSSE (150°)8.1 mphOvercast
11:51 PM70.0 °F61.0 °F73 %29.94 in10.0 miSouth (180°)6.9 mphMostly Cloudy
Hourly data recorded from KMDW, located miles away from Bedford Park, Illinois







STORIES FROM OUR PARTNERS